GW4350 Weather Reports


time (UTC)temp
C
wind
direction
speed
KPH
gust
KPH
rain 1hr
cm
rain 24hr
cm
rain mn
cm
humidity
%
barometer
mb
20260506201940 18 231 8.0 11.3 0.00 0.41 0.41 85 995.8
20260506201438 18 163 4.8 8.0 0.00 0.41 0.41 86 995.8
20260506200934 18 113 4.8 8.0 0.00 0.41 0.41 86 995.8
20260506200431 18 223 6.4 8.0 0.00 0.41 0.41 86 995.9
20260506195927 18 247 14.5 16.1 0.00 0.41 0.41 86 995.8
20260506195424 17 168 4.8 4.8 0.00 0.41 0.41 88 996.1
20260506194915 17 183 3.2 4.8 0.00 0.41 0.41 88 996.1
20260506194413 17 214 6.4 9.7 0.00 0.41 0.41 88 995.7
20260506193910 17 236 4.8 8.0 0.00 0.41 0.41 88 996.0
20260506193407 17 206 6.4 8.0 0.00 0.41 0.41 89 996.1
20260506192903 17 145 3.2 3.2 0.00 0.41 0.41 90 996.0
20260506192400 17 182 1.6 3.2 0.00 0.41 0.41 90 996.0
20260506191857 17 174 4.8 4.8 0.00 0.41 0.41 90 996.3
20260506191353 17 212 6.4 8.0 0.00 0.41 0.41 90 996.2
20260506190850 17 166 3.2 3.2 0.00 0.41 0.41 90 996.4
20260506190346 16 209 6.4 9.7 0.00 0.41 0.41 91 996.4
20260506185843 16 155 3.2 3.2 0.00 0.41 0.41 91 996.6
20260506185340 16 164 6.4 8.0 0.00 0.41 0.41 91 996.4
20260506184837 16 196 8.0 9.7 0.00 0.41 0.41 91 996.6
20260506184334 16 196 6.4 8.0 0.00 0.41 0.41 91 996.5
20260506183832 16 152 4.8 8.0 0.00 0.41 0.41 92 996.6
20260506183327 16 150 6.4 9.7 0.00 0.41 0.41 91 996.5
20260506182825 16 187 8.0 11.3 0.00 0.41 0.41 92 996.7
20260506182321 16 207 8.0 11.3 0.00 0.41 0.41 92 996.7
20260506181819 16 222 9.7 14.5 0.00 0.41 0.41 93 996.8
20260506181316 16 171 1.6 1.6 0.00 0.41 0.41 94 996.8
20260506180813 16 216 8.0 9.7 0.00 0.41 0.41 94 996.7
20260506180309 16 196 1.6 3.2 0.00 0.41 0.41 95 997.0
20260506175805 16 206 8.0 9.7 0.00 0.41 0.41 94 997.0
20260506175305 16 150 6.4 8.0 0.00 0.41 0.41 94 996.6
20260506174800 16 185 6.4 9.7 0.00 0.41 0.41 94 996.6
20260506174257 16 193 9.7 12.9 0.00 0.41 0.41 95 997.1
20260506173754 16 242 11.3 16.1 0.00 0.41 0.41 96 997.1
20260506173251 16 154 6.4 9.7 0.00 0.41 0.41 96 996.8
20260506172748 16 192 11.3 14.5 0.00 0.41 0.41 96 996.8
20260506172244 16 149 1.6 3.2 0.00 0.41 0.41 96 996.9
20260506171742 16 204 6.4 8.0 0.00 0.41 0.41 96 997.0
20260506171239 16 188 1.6 3.2 0.00 0.41 0.41 97 997.1
20260506170737 16 212 6.4 9.7 0.00 0.41 0.41 96 996.9
20260506170233 16 170 4.8 8.0 0.00 0.41 0.41 96 996.9
20260506165732 16 156 6.4 8.0 0.00 0.41 0.41 96 997.0
20260506165228 16 179 4.8 8.0 0.00 0.41 0.41 96 996.9
20260506164726 16 110 6.4 9.7 0.00 0.41 0.41 96 997.1
20260506164222 16 184 4.8 4.8 0.13 0.41 0.41 97 996.8
20260506163719 16 201 4.8 4.8 0.13 0.41 0.41 97 996.8
20260506163214 16 179 3.2 3.2 0.00 0.38 0.38 97 997.3
20260506162710 16 138 4.8 4.8 0.18 0.38 0.38 97 997.1
20260506162208 16 170 6.4 8.0 0.36 0.38 0.38 96 997.1
20260506161705 16 203 4.8 8.0 0.18 0.36 0.36 96 997.2
20260506161202 15 174 4.8 4.8 0.13 0.33 0.33 96 997.7
20260506160659 16 167 1.6 1.6 0.30 0.33 0.33 96 997.8
20260506160156 16 190 4.8 4.8 0.18 0.30 0.30 95 998.1
20260506155655 16 165 8.0 8.0 0.13 0.28 0.28 95 998.0
20260506155151 16 160 4.8 8.0 0.30 0.28 0.28 95 998.1
20260506153253 16 214 1.6 4.8 0.48 0.20 0.20 93 998.3
20260506152750 16 145 1.6 1.6 0.43 0.18 0.18 93 998.3
20260506152248 16 157 3.2 3.2 0.13 0.13 0.13 92 998.1
20260506151747 16 179 4.8 4.8 0.18 0.10 0.10 91 998.2
20260506151243 16 191 4.8 4.8 0.18 0.10 0.10 90 997.9
20260506150739 16 183 8.0 11.3 0.18 0.08 0.08 89 998.1
20260506150237 16 209 3.2 3.2 0.18 0.08 0.08 89 998.5
20260506145733 17 235 9.7 12.9 0.13 0.05 0.05 87 998.2
20260506145230 17 173 4.8 4.8 0.13 0.05 0.05 86 998.2
20260506144727 17 193 3.2 3.2 0.00 0.03 0.03 86 997.8
20260506144224 17 194 4.8 8.0 0.18 0.03 0.03 86 998.0
20260506143721 17 206 4.8 8.0 0.18 0.03 0.03 84 998.3
20260506143219 17 219 6.4 9.7 0.00 0.00 0.00 82 998.1
20260506142718 17 218 6.4 9.7 0.00 0.00 0.00 80 998.4
20260506142215 18 190 4.8 4.8 0.00 0.00 0.00 78 998.2
20260506141713 18 185 6.4 8.0 0.00 0.00 0.00 77 998.2
20260506141211 18 105 9.7 14.5 0.00 0.00 0.00 75 998.3
20260506140708 18 212 8.0 9.7 0.00 0.00 0.00 74 998.2
20260506140205 18 150 4.8 4.8 0.00 0.00 0.00 74 998.0
20260506135702 18 204 8.0 9.7 0.00 0.00 0.00 74 997.9
20260506135158 19 236 14.5 17.7 0.00 0.00 0.00 73 997.9
20260506134655 19 151 6.4 8.0 0.00 0.00 0.00 74 998.1
20260506134151 18 181 4.8 4.8 0.00 0.00 0.00 74 997.9
20260506133648 18 209 9.7 11.3 0.00 0.00 0.00 75 998.0
20260506133145 18 193 4.8 4.8 0.00 0.00 0.00 76 998.3
20260506132643 18 175 6.4 9.7 0.00 0.00 0.00 76 998.0
20260506132139 18 168 3.2 3.2 0.00 0.00 0.00 75 998.1
20260506131637 18 220 6.4 9.7 0.00 0.00 0.00 75 998.1
20260506131133 18 173 4.8 4.8 0.00 0.00 0.00 75 998.1
20260506130630 18 235 11.3 17.7 0.00 0.00 0.00 75 998.3
20260506130127 18 208 6.4 8.0 0.00 0.00 0.00 75 998.2
20260506125625 18 169 8.0 14.5 0.00 0.00 0.00 75 998.2
20260506125123 18 139 11.3 14.5 0.00 0.00 0.00 75 998.2
20260506124620 18 207 12.9 14.5 0.00 0.00 0.00 75 998.4
20260506124118 18 150 8.0 9.7 0.00 0.00 0.00 75 998.0
20260506123616 18 135 4.8 8.0 0.00 0.00 0.00 76 998.0
20260506123114 18 208 6.4 8.0 0.00 0.00 0.00 76 998.1
20260506122610 18 197 8.0 12.9 0.00 0.00 0.00 76 998.1
20260506122108 18 192 4.8 4.8 0.00 0.00 0.00 77 998.0
20260506121606 18 168 6.4 8.0 0.00 0.00 0.00 78 998.0
20260506121102 18 168 4.8 4.8 0.00 0.00 0.00 78 997.8
20260506120600 18 155 6.4 8.0 0.00 0.00 0.00 78 997.8
20260506120057 17 181 8.0 9.7 0.00 0.00 0.00 79 997.8
20260506115555 17 219 6.4 8.0 0.00 0.00 0.00 78 997.9
20260506115053 17 189 4.8 8.0 0.00 0.00 0.00 79 997.9
20260506114550 17 164 4.8 4.8 0.00 0.00 0.00 80 997.8
20260506114048 17 128 4.8 4.8 0.00 0.00 0.00 80 997.8
20260506113546 17 171 11.3 12.9 0.00 0.00 0.00 80 998.0
20260506113043 17 181 1.6 3.2 0.00 0.00 0.00 80 997.7
20260506112539 17 159 3.2 4.8 0.00 0.00 0.00 80 997.8
20260506112037 17 170 3.2 3.2 0.00 0.00 0.00 80 997.8
20260506111535 17 178 4.8 8.0 0.00 0.00 0.00 81 998.0
20260506111032 17 186 3.2 3.2 0.00 0.00 0.00 81 997.9
20260506110530 17 176 4.8 4.8 0.00 0.00 0.00 81 997.9
20260506110027 17 204 4.8 8.0 0.00 0.00 0.00 81 997.7
20260506105522 17 204 4.8 4.8 0.00 0.00 0.00 81 998.0
20260506105020 17 189 4.8 8.0 0.00 0.00 0.00 81 997.9
20260506104518 17 209 4.8 4.8 0.00 0.00 0.00 81 997.7
20260506104016 17 146 4.8 4.8 0.00 0.00 0.00 82 997.6
20260506103513 17 177 1.6 3.2 0.00 0.00 0.00 82 997.9
20260506103009 17 199 4.8 4.8 0.00 0.00 0.00 82 998.0
20260506102508 17 174 3.2 3.2 0.00 0.00 0.00 82 997.6
20260506102005 17 190 4.8 8.0 0.00 0.00 0.00 82 997.8
20260506101501 17 151 1.6 1.6 0.00 0.00 0.00 82 997.8
20260506100958 17 201 6.4 8.0 0.00 0.00 0.00 82 997.8
20260506100457 17 155 3.2 9.7 0.00 0.00 0.00 82 997.6
20260506095954 17 182 4.8 4.8 0.00 0.00 0.00 82 997.8
20260506095453 17 166 6.4 9.7 0.00 0.00 0.00 82 997.7
20260506094948 17 168 4.8 4.8 0.00 0.00 0.00 82 998.0
20260506094447 17 190 4.8 4.8 0.00 0.00 0.00 82 997.9
20260506093944 17 215 3.2 4.8 0.00 0.00 0.00 81 998.1
20260506093442 17 107 4.8 4.8 0.00 0.00 0.00 81 997.7
20260506092940 17 182 3.2 4.8 0.00 0.00 0.00 81 997.7
20260506092437 17 195 6.4 8.0 0.00 0.00 0.00 81 997.6
20260506091934 17 176 1.6 3.2 0.00 0.00 0.00 81 997.8
20260506091432 17 187 4.8 8.0 0.00 0.00 0.00 81 997.8
20260506090929 17 162 6.4 8.0 0.00 0.00 0.00 80 998.0
20260506090426 17 167 1.6 3.2 0.00 0.00 0.00 80 997.8
20260506085923 17 126 4.8 4.8 0.00 0.00 0.00 80 998.0
20260506085420 17 164 1.6 1.6 0.00 0.00 0.00 80 997.8
20260506084916 17 146 4.8 9.7 0.00 0.00 0.00 80 998.0
20260506084413 17 216 4.8 4.8 0.00 0.00 0.00 80 997.9
20260506083909 17 159 3.2 4.8 0.00 0.00 0.00 80 997.8
20260506083407 18 156 4.8 4.8 0.00 0.00 0.00 79 997.7
20260506082904 18 182 3.2 4.8 0.00 0.00 0.00 79 997.7
20260506082401 18 154 1.6 3.2 0.00 0.00 0.00 78 997.9
20260506081856 18 145 1.6 3.2 0.00 0.00 0.00 78 997.9
20260506081355 18 218 6.4 11.3 0.00 0.00 0.00 78 998.0
20260506080852 18 227 6.4 8.0 0.00 0.00 0.00 78 998.0
20260506080349 18 167 3.2 3.2 0.00 0.00 0.00 79 998.2
20260506073333 18 223 4.8 4.8 0.00 0.00 0.00 78 998.1
20260506072829 18 183 3.2 3.2 0.00 0.00 0.00 78 998.1
20260506072327 18 185 6.4 8.0 0.00 0.00 0.00 78 998.1
20260506071825 18 156 4.8 9.7 0.00 0.00 0.00 77 998.1
20260506071323 18 157 4.8 4.8 0.00 0.00 0.00 77 998.1
20260506070819 18 228 9.7 12.9 0.00 0.00 0.00 77 998.1
20260506070316 18 200 4.8 4.8 0.00 0.00 0.00 77 998.2
20260506062253 18 244 11.3 14.5 0.00 0.00 0.00 74 998.5
20260506061749 18 161 3.2 4.8 0.00 0.00 0.00 75 998.5
20260506061247 18 162 3.2 3.2 0.00 0.00 0.00 75 998.6
20260506060745 18 146 6.4 8.0 0.00 0.00 0.00 74 998.5
20260506060242 18 205 4.8 8.0 0.00 0.00 0.00 74 998.5
20260506051209 19 185 3.2 3.2 0.00 0.00 0.00 72 998.8
20260506050707 19 196 4.8 4.8 0.00 0.00 0.00 72 998.9
20260506050204 19 192 4.8 4.8 0.00 0.00 0.00 71 999.0
20260506044655 19 181 4.8 4.8 0.00 0.00 0.00 70 999.1
20260506044151 19 199 4.8 4.8 0.00 0.00 0.00 70 999.1
20260506043649 19 174 4.8 4.8 0.00 0.00 0.00 70 999.2
20260506043147 19 149 4.8 4.8 0.00 0.00 0.00 70 999.2
20260506042646 19 124 0.0 0.0 0.00 0.00 0.00 69 999.4
20260506042143 19 163 0.0 0.0 0.00 0.00 0.00 69 999.0
20260506041641 19 151 3.2 3.2 0.00 0.00 0.00 69 999.2
20260506041137 19 206 3.2 3.2 0.00 0.00 0.00 69 999.2
20260506040635 19 159 0.0 1.6 0.00 0.00 0.00 69 999.2
20260506040132 19 153 1.6 3.2 0.00 0.00 0.00 68 999.1
20260506035629 19 190 3.2 3.2 0.00 0.00 0.00 68 999.0
20260506035125 19 169 1.6 1.6 0.00 0.00 0.00 68 998.9
20260506034622 19 160 1.6 1.6 0.00 0.00 0.00 68 999.3
20260506034119 19 162 1.6 1.6 0.00 0.00 0.00 68 998.9
20260506033617 19 172 1.6 1.6 0.00 0.00 0.00 67 998.8
20260506033114 19 193 4.8 4.8 0.00 0.00 0.00 67 998.8
20260506032612 19 165 3.2 4.8 0.00 0.00 0.00 67 998.8
20260506032108 20 160 1.6 3.2 0.00 0.00 0.00 67 999.0
20260506031605 20 165 6.4 8.0 0.00 0.00 0.00 67 998.9
20260506031102 20 197 3.2 3.2 0.00 0.00 0.00 66 998.9
20260506030600 20 193 4.8 4.8 0.00 0.00 0.00 66 998.8
20260506030058 20 169 3.2 4.8 0.00 0.00 0.00 66 998.8
20260506025554 20 167 6.4 8.0 0.00 0.00 0.00 66 999.0
20260506025050 20 189 4.8 4.8 0.00 0.00 0.00 65 999.1
20260506024547 20 209 3.2 3.2 0.00 0.00 0.00 65 999.0
20260506024043 20 149 6.4 11.3 0.00 0.00 0.00 64 998.9
20260506023539 20 163 6.4 8.0 0.00 0.00 0.00 63 999.3
20260506023037 20 176 4.8 8.0 0.00 0.00 0.00 62 998.9
20260506022534 20 179 3.2 4.8 0.00 0.00 0.00 61 999.0
20260506022032 21 151 3.2 4.8 0.00 0.00 0.00 60 999.2
20260506021529 21 157 1.6 1.6 0.00 0.00 0.00 58 998.9
20260506021026 21 179 4.8 4.8 0.00 0.00 0.00 57 998.9
20260506020524 21 145 0.0 1.6 0.00 0.00 0.00 56 999.1
20260506020021 21 170 4.8 8.0 0.00 0.00 0.00 55 998.8
20260506015518 22 194 3.2 3.2 0.00 0.00 0.00 54 998.7
20260506015015 22 212 8.0 9.7 0.00 0.00 0.00 53 998.6
20260506014513 22 184 4.8 9.7 0.00 0.00 0.00 53 998.8
20260506014008 22 138 4.8 9.7 0.00 0.00 0.00 53 998.6
20260506013507 22 223 8.0 9.7 0.00 0.00 0.00 52 998.9
20260506013003 22 174 3.2 4.8 0.00 0.00 0.00 52 998.6
20260506012459 22 110 4.8 4.8 0.00 0.00 0.00 52 998.4
20260506011956 22 168 1.6 3.2 0.00 0.00 0.00 51 998.6
20260506011454 22 144 6.4 9.7 0.00 0.00 0.00 51 998.6
20260506010951 22 159 4.8 4.8 0.00 0.00 0.00 50 998.7
20260506010450 22 168 4.8 8.0 0.00 0.00 0.00 50 998.3
20260506005945 22 217 4.8 8.0 0.00 0.00 0.00 49 998.3
20260506005444 22 139 9.7 14.5 0.00 0.00 0.00 49 998.3
20260506004944 23 150 6.4 8.0 0.00 0.00 0.00 48 998.3
20260506004442 23 196 4.8 4.8 0.00 0.00 0.00 48 998.2
20260506003938 23 142 3.2 4.8 0.00 0.00 0.00 48 998.1
20260506003435 23 186 8.0 12.9 0.00 0.00 0.00 48 998.1
20260506002931 23 170 1.6 1.6 0.00 0.00 0.00 48 998.0
20260506002427 23 151 6.4 12.9 0.00 0.00 0.00 47 998.0
20260506001922 23 160 8.0 11.3 0.00 0.00 0.00 46 998.1
20260506001420 23 199 4.8 8.0 0.00 0.00 0.00 47 997.9
20260506000917 23 155 4.8 4.8 0.00 0.00 0.00 46 997.9
20260506000416 23 198 6.4 8.0 0.00 0.00 0.00 46 997.8
20260505235911 23 195 6.4 8.0 0.00 0.00 0.00 47 997.7
20260505235409 23 162 6.4 9.7 0.00 0.00 0.00 47 997.7
20260505234906 23 177 8.0 11.3 0.00 0.00 0.00 47 997.7
20260505234403 24 190 6.4 8.0 0.00 0.00 0.00 47 997.5
20260505233900 24 214 3.2 4.8 0.00 0.00 0.00 47 997.7
20260505233358 24 151 3.2 3.2 0.00 0.00 0.00 47 997.6
20260505232855 24 199 6.4 8.0 0.00 0.00 0.00 46 997.8
20260505232353 24 233 8.0 20.9 0.00 0.00 0.00 46 997.9
20260505231849 25 142 6.4 9.7 0.00 0.00 0.00 46 997.5
20260505231347 25 218 8.0 12.9 0.00 0.00 0.00 46 997.9
20260505230845 25 180 3.2 4.8 0.00 0.00 0.00 46 997.9
20260505230342 25 134 8.0 9.7 0.00 0.00 0.00 46 997.5
20260505225839 25 158 4.8 8.0 0.00 0.00 0.00 46 997.4
20260505225336 25 150 4.8 4.8 0.00 0.00 0.00 45 997.4
20260505224830 25 146 6.4 9.7 0.00 0.00 0.00 44 997.2
20260505224329 25 233 14.5 17.7 0.00 0.00 0.00 41 997.2
20260505223826 25 149 6.4 9.7 0.00 0.00 0.00 40 997.3
20260505223323 26 149 3.2 4.8 0.00 0.00 0.00 40 997.2
20260505222818 26 97 1.6 3.2 0.00 0.00 0.00 39 997.5
20260505222314 26 179 14.5 20.9 0.00 0.00 0.00 38 997.4
20260505221812 26 171 3.2 8.0 0.00 0.00 0.00 39 997.6
20260505221309 26 226 6.4 8.0 0.00 0.00 0.00 39 997.4
20260505220806 26 178 8.0 12.9 0.00 0.00 0.00 38 997.2
20260505220303 26 189 8.0 9.7 0.00 0.00 0.00 38 997.3
20260505215801 26 227 11.3 20.9 0.00 0.00 0.00 37 997.1
20260505215258 26 219 12.9 20.9 0.00 0.00 0.00 36 997.1
20260505214756 26 205 12.9 16.1 0.00 0.00 0.00 37 997.3
20260505214253 26 117 11.3 12.9 0.00 0.00 0.00 36 997.2
20260505213750 26 174 11.3 16.1 0.00 0.00 0.00 36 997.0
20260505213248 27 178 8.0 9.7 0.00 0.00 0.00 36 997.2
20260505212743 27 142 11.3 16.1 0.00 0.00 0.00 36 997.3
20260505212241 26 223 4.8 4.8 0.00 0.00 0.00 37 997.1
20260505211738 26 185 4.8 4.8 0.00 0.00 0.00 38 997.3
20260505211235 26 212 6.4 8.0 0.00 0.00 0.00 37 997.2
20260505210731 26 201 4.8 4.8 0.00 0.00 0.00 38 997.2
20260505210228 26 226 12.9 22.5 0.00 0.00 0.00 36 997.1
20260505205726 26 146 6.4 9.7 0.00 0.00 0.00 37 997.2
20260505205224 26 117 6.4 8.0 0.00 0.00 0.00 36 997.3
20260505204720 26 213 11.3 14.5 0.00 0.00 0.00 35 997.2
20260505204218 26 160 9.7 12.9 0.00 0.00 0.00 35 997.2
20260505203715 26 180 14.5 20.9 0.00 0.00 0.00 35 997.3
20260505203212 26 157 8.0 12.9 0.00 0.00 0.00 35 997.2
20260505202707 26 232 12.9 20.9 0.00 0.00 0.00 34 997.1
20260505202204 27 223 9.7 16.1 0.00 0.00 0.00 34 997.1